Time,TemperatureF,DewpointF,PressureIn,WindDirection,WindDirectionDegrees,WindSpeedMPH,WindSpeedGustMPH,Humidity,HourlyPrecipIn,Conditions,Clouds,dailyrainin,SoftwareType,DateUTC
2013-02-24 00:04:00,18.0,15.6,30.00,WSW,244,3.0,4.0,90,0.00,,,0.00,Wunderground v.1.15,2013-02-24 06:04:00,
2013-02-24 00:10:00,17.8,15.4,30.00,WSW,243,3.0,4.0,90,0.00,,,0.00,Wunderground v.1.15,2013-02-24 06:10:00,
2013-02-24 00:15:00,17.3,14.9,30.00,WSW,240,4.0,5.0,90,0.00,,,0.00,Wunderground v.1.15,2013-02-24 06:15:00,
2013-02-24 00:20:00,17.0,14.6,30.00,WSW,240,4.0,4.0,90,0.00,,,0.00,Wunderground v.1.15,2013-02-24 06:20:00,
2013-02-24 00:25:00,16.8,14.4,30.00,WSW,241,3.0,4.0,90,0.00,,,0.00,Wunderground v.1.15,2013-02-24 06:25:00,
2013-02-24 00:31:00,16.9,14.5,30.01,WSW,243,4.0,4.0,90,0.00,,,0.00,Wunderground v.1.15,2013-02-24 06:31:00,
2013-02-24 00:36:00,16.5,14.1,30.01,WSW,243,4.0,4.0,90,0.00,,,0.00,Wunderground v.1.15,2013-02-24 06:36:00,
2013-02-24 00:42:00,16.4,14.2,30.01,WSW,244,4.0,4.0,91,0.00,,,0.00,Wunderground v.1.15,2013-02-24 06:42:00,
2013-02-24 00:48:00,16.6,14.4,30.01,WSW,244,4.0,4.0,91,0.00,,,0.00,Wunderground v.1.15,2013-02-24 06:48:00,
2013-02-24 00:53:00,16.6,14.2,30.01,WSW,239,4.0,4.0,90,0.00,,,0.00,Wunderground v.1.15,2013-02-24 06:53:00,
2013-02-24 00:59:00,16.4,14.0,30.01,WSW,242,4.0,4.0,90,0.00,,,0.00,Wunderground v.1.15,2013-02-24 06:59:00,
2013-02-24 01:05:00,16.4,14.0,30.01,WSW,243,4.0,4.0,90,0.00,,,0.00,Wunderground v.1.15,2013-02-24 07:05:00,
2013-02-24 01:10:00,16.4,14.2,30.01,WSW,247,4.0,4.0,91,0.00,,,0.00,Wunderground v.1.15,2013-02-24 07:10:00,
2013-02-24 01:15:00,16.5,14.3,30.01,WSW,245,4.0,4.0,91,0.00,,,0.00,Wunderground v.1.15,2013-02-24 07:15:00,
2013-02-24 01:20:00,16.5,14.1,30.01,WSW,240,4.0,4.0,90,0.00,,,0.00,Wunderground v.1.15,2013-02-24 07:20:00,
2013-02-24 01:25:00,16.6,14.2,30.01,WSW,247,4.0,5.0,90,0.00,,,0.00,Wunderground v.1.15,2013-02-24 07:25:00,
2013-02-24 01:31:00,16.9,14.7,30.02,WSW,249,4.0,6.0,91,0.00,,,0.00,Wunderground v.1.15,2013-02-24 07:31:00,
2013-02-24 01:37:00,16.8,14.4,30.02,WSW,256,5.0,6.0,90,0.00,,,0.00,Wunderground v.1.15,2013-02-24 07:37:00,
2013-02-24 01:42:00,17.1,14.9,30.03,WSW,249,5.0,5.0,91,0.00,,,0.00,Wunderground v.1.15,2013-02-24 07:42:00,
2013-02-24 01:47:00,17.5,15.1,30.03,WSW,258,4.0,5.0,90,0.00,,,0.00,Wunderground v.1.15,2013-02-24 07:47:00,
2013-02-24 01:52:00,17.8,15.4,30.03,WSW,258,4.0,4.0,90,0.00,,,0.00,Wunderground v.1.15,2013-02-24 07:52:00,
2013-02-24 01:57:00,18.1,15.7,30.03,WSW,238,4.0,5.0,90,0.00,,,0.00,Wunderground v.1.15,2013-02-24 07:57:00,
2013-02-24 02:03:00,18.2,15.8,30.02,WSW,257,4.0,4.0,90,0.00,,,0.00,Wunderground v.1.15,2013-02-24 08:03:00,
2013-02-24 02:08:00,18.5,16.1,30.02,WSW,248,3.0,4.0,90,0.00,,,0.00,Wunderground v.1.15,2013-02-24 08:08:00,
2013-02-24 02:13:00,18.3,15.6,30.02,WSW,246,3.0,4.0,89,0.00,,,0.00,Wunderground v.1.15,2013-02-24 08:13:00,
2013-02-24 02:18:00,18.1,15.4,30.02,WSW,245,3.0,4.0,89,0.00,,,0.00,Wunderground v.1.15,2013-02-24 08:18:00,
2013-02-24 02:23:00,18.0,15.3,30.03,WSW,245,2.0,4.0,89,0.00,,,0.00,Wunderground v.1.15,2013-02-24 08:23:00,
2013-02-24 02:28:00,17.7,15.0,30.03,WSW,244,4.0,6.0,89,0.00,,,0.00,Wunderground v.1.15,2013-02-24 08:28:00,
2013-02-24 02:33:00,17.4,14.7,30.02,WSW,256,5.0,5.0,89,0.00,,,0.00,Wunderground v.1.15,2013-02-24 08:33:00,
2013-02-24 02:38:00,17.9,15.5,30.02,West,268,4.0,5.0,90,0.00,,,0.00,Wunderground v.1.15,2013-02-24 08:38:00,
2013-02-24 02:43:00,18.5,16.1,30.03,West,270,4.0,5.0,90,0.00,,,0.00,Wunderground v.1.15,2013-02-24 08:43:00,
2013-02-24 02:49:00,18.5,15.8,30.03,WSW,250,4.0,5.0,89,0.00,,,0.00,Wunderground v.1.15,2013-02-24 08:49:00,
2013-02-24 02:54:00,18.5,15.8,30.02,WSW,256,4.0,5.0,89,0.00,,,0.00,Wunderground v.1.15,2013-02-24 08:54:00,
2013-02-24 03:00:00,18.8,16.1,30.02,WSW,256,5.0,5.0,89,0.00,,,0.00,Wunderground v.1.15,2013-02-24 09:00:00,
2013-02-24 03:06:00,18.6,15.9,30.03,WSW,249,5.0,5.0,89,0.00,,,0.00,Wunderground v.1.15,2013-02-24 09:06:00,
2013-02-24 03:11:00,18.3,15.3,30.02,West,263,4.0,4.0,88,0.00,,,0.00,Wunderground v.1.15,2013-02-24 09:11:00,
2013-02-24 03:16:00,18.0,15.3,30.03,WSW,239,2.0,4.0,89,0.00,,,0.00,Wunderground v.1.15,2013-02-24 09:16:00,
2013-02-24 03:21:00,17.9,15.2,30.03,WSW,254,2.0,3.0,89,0.00,,,0.00,Wunderground v.1.15,2013-02-24 09:21:00,
2013-02-24 03:27:00,17.7,15.0,30.03,WSW,244,3.0,4.0,89,0.00,,,0.00,Wunderground v.1.15,2013-02-24 09:27:00,
2013-02-24 03:32:00,17.5,14.8,30.03,WSW,244,4.0,6.0,89,0.00,,,0.00,Wunderground v.1.15,2013-02-24 09:32:00,
2013-02-24 03:37:00,17.6,14.9,30.03,WSW,252,6.0,7.0,89,0.00,,,0.00,Wunderground v.1.15,2013-02-24 09:37:00,
2013-02-24 03:43:00,17.7,15.0,30.03,WSW,254,6.0,7.0,89,0.00,,,0.00,Wunderground v.1.15,2013-02-24 09:43:00,
2013-02-24 03:48:00,17.6,14.9,30.04,WSW,244,7.0,7.0,89,0.00,,,0.00,Wunderground v.1.15,2013-02-24 09:48:00,
2013-02-24 03:53:00,17.3,14.6,30.04,WSW,248,6.0,7.0,89,0.00,,,0.00,Wunderground v.1.15,2013-02-24 09:53:00,
2013-02-24 03:59:00,17.0,14.3,30.04,WSW,249,5.0,7.0,89,0.00,,,0.00,Wunderground v.1.15,2013-02-24 09:59:00,
2013-02-24 04:05:00,17.1,14.4,30.04,WSW,251,5.0,5.0,89,0.00,,,0.00,Wunderground v.1.15,2013-02-24 10:05:00,
2013-02-24 04:10:00,17.1,14.4,30.04,WSW,250,4.0,4.0,89,0.00,,,0.00,Wunderground v.1.15,2013-02-24 10:10:00,
2013-02-24 04:16:00,17.2,14.5,30.04,West,264,4.0,5.0,89,0.00,,,0.00,Wunderground v.1.15,2013-02-24 10:16:00,
2013-02-24 04:21:00,16.8,14.1,30.04,WSW,244,4.0,4.0,89,0.00,,,0.00,Wunderground v.1.15,2013-02-24 10:21:00,
2013-02-24 04:26:00,16.6,13.9,30.04,WSW,244,4.0,4.0,89,0.00,,,0.00,Wunderground v.1.15,2013-02-24 10:26:00,
2013-02-24 04:32:00,16.3,13.6,30.05,WSW,250,4.0,4.0,89,0.00,,,0.00,Wunderground v.1.15,2013-02-24 10:32:00,
2013-02-24 04:37:00,16.1,13.4,30.05,WSW,243,4.0,5.0,89,0.00,,,0.00,Wunderground v.1.15,2013-02-24 10:37:00,
2013-02-24 04:42:00,16.3,13.9,30.05,WSW,239,5.0,6.0,90,0.00,,,0.00,Wunderground v.1.15,2013-02-24 10:42:00,
2013-02-24 04:47:00,16.5,14.1,30.05,WSW,254,6.0,7.0,90,0.00,,,0.00,Wunderground v.1.15,2013-02-24 10:47:00,
2013-02-24 04:52:00,16.6,14.2,30.05,WSW,255,5.0,6.0,90,0.00,,,0.00,Wunderground v.1.15,2013-02-24 10:52:00,
2013-02-24 04:57:00,16.6,14.2,30.05,WSW,242,5.0,6.0,90,0.00,,,0.00,Wunderground v.1.15,2013-02-24 10:57:00,
2013-02-24 05:02:00,16.6,13.9,30.05,WSW,247,6.0,6.0,89,0.00,,,0.00,Wunderground v.1.15,2013-02-24 11:02:00,
2013-02-24 05:07:00,16.7,14.3,30.06,WSW,246,6.0,6.0,90,0.00,,,0.00,Wunderground v.1.15,2013-02-24 11:07:00,
2013-02-24 05:13:00,16.8,14.4,30.06,WSW,254,6.0,6.0,90,0.00,,,0.00,Wunderground v.1.15,2013-02-24 11:13:00,
2013-02-24 05:18:00,17.0,14.6,30.06,WSW,243,6.0,6.0,90,0.00,,,0.00,Wunderground v.1.15,2013-02-24 11:18:00,
2013-02-24 05:23:00,16.9,14.2,30.06,WSW,251,5.0,6.0,89,0.00,,,0.00,Wunderground v.1.15,2013-02-24 11:23:00,
2013-02-24 05:28:00,16.7,14.0,30.06,WSW,252,5.0,6.0,89,0.00,,,0.00,Wunderground v.1.15,2013-02-24 11:28:00,
2013-02-24 05:33:00,16.6,13.9,30.07,WSW,246,5.0,5.0,89,0.00,,,0.00,Wunderground v.1.15,2013-02-24 11:33:00,
2013-02-24 05:38:00,16.6,14.2,30.07,WSW,256,5.0,6.0,90,0.00,,,0.00,Wunderground v.1.15,2013-02-24 11:38:00,
2013-02-24 05:43:00,16.6,13.9,30.07,West,260,5.0,5.0,89,0.00,,,0.00,Wunderground v.1.15,2013-02-24 11:43:00,
2013-02-24 05:48:00,16.6,14.2,30.07,WSW,257,5.0,5.0,90,0.00,,,0.00,Wunderground v.1.15,2013-02-24 11:48:00,
2013-02-24 05:53:00,16.6,13.9,30.07,West,261,4.0,4.0,89,0.00,,,0.00,Wunderground v.1.15,2013-02-24 11:53:00,
2013-02-24 05:58:00,16.7,14.3,30.08,WSW,258,4.0,5.0,90,0.00,,,0.00,Wunderground v.1.15,2013-02-24 11:58:00,
2013-02-24 06:03:00,17.0,14.6,30.08,West,269,4.0,5.0,90,0.00,,,0.00,Wunderground v.1.15,2013-02-24 12:03:00,
2013-02-24 06:08:00,17.4,15.0,30.08,West,263,5.0,6.0,90,0.00,,,0.00,Wunderground v.1.15,2013-02-24 12:08:00,
2013-02-24 06:14:00,17.9,15.5,30.08,West,271,6.0,6.0,90,0.00,,,0.00,Wunderground v.1.15,2013-02-24 12:14:00,
2013-02-24 06:19:00,17.7,15.0,30.08,West,265,6.0,6.0,89,0.00,,,0.00,Wunderground v.1.15,2013-02-24 12:19:00,
2013-02-24 06:24:00,17.4,14.7,30.08,West,270,6.0,6.0,89,0.00,,,0.00,Wunderground v.1.15,2013-02-24 12:24:00,
2013-02-24 06:29:00,17.2,14.5,30.08,West,267,6.0,6.0,89,0.00,,,0.00,Wunderground v.1.15,2013-02-24 12:29:00,
2013-02-24 06:34:00,17.3,14.9,30.08,West,268,4.0,5.0,90,0.00,,,0.00,Wunderground v.1.15,2013-02-24 12:34:00,
2013-02-24 06:40:00,17.4,14.7,30.09,West,261,3.0,3.0,89,0.00,,,0.00,Wunderground v.1.15,2013-02-24 12:40:00,
2013-02-24 06:45:00,17.2,14.5,30.09,West,260,2.0,3.0,89,0.00,,,0.00,Wunderground v.1.15,2013-02-24 12:45:00,
2013-02-24 06:50:00,17.2,14.5,30.09,WSW,256,1.0,1.0,89,0.00,,,0.00,Wunderground v.1.15,2013-02-24 12:50:00,
2013-02-24 06:55:00,17.3,14.6,30.09,WSW,249,0.0,1.0,89,0.00,,,0.00,Wunderground v.1.15,2013-02-24 12:55:00,
2013-02-24 07:00:00,17.3,14.6,30.09,WSW,251,0.0,0.0,89,0.00,,,0.00,Wunderground v.1.15,2013-02-24 13:00:00,
2013-02-24 07:06:00,17.3,14.4,30.09,WSW,240,0.0,1.0,88,0.00,,,0.00,Wunderground v.1.15,2013-02-24 13:06:00,
2013-02-24 07:11:00,17.6,14.9,30.10,WSW,239,0.0,0.0,89,0.00,,,0.00,Wunderground v.1.15,2013-02-24 13:11:00,
2013-02-24 07:16:00,17.8,14.8,30.10,SW,215,1.0,4.0,88,0.00,,,0.00,Wunderground v.1.15,2013-02-24 13:16:00,
2013-02-24 07:21:00,17.2,14.0,30.10,SW,224,3.0,5.0,87,0.00,,,0.00,Wunderground v.1.15,2013-02-24 13:21:00,
2013-02-24 07:26:00,17.1,14.2,30.11,SW,226,5.0,5.0,88,0.00,,,0.00,Wunderground v.1.15,2013-02-24 13:26:00,
2013-02-24 07:31:00,17.2,14.5,30.11,SW,235,4.0,4.0,89,0.00,,,0.00,Wunderground v.1.15,2013-02-24 13:31:00,
2013-02-24 07:36:00,17.5,14.8,30.11,SW,235,4.0,4.0,89,0.00,,,0.00,Wunderground v.1.15,2013-02-24 13:36:00,
2013-02-24 07:41:00,18.1,15.4,30.11,WSW,244,3.0,3.0,89,0.00,,,0.00,Wunderground v.1.15,2013-02-24 13:41:00,
2013-02-24 07:46:00,18.5,15.8,30.11,WSW,239,2.0,3.0,89,0.00,,,0.00,Wunderground v.1.15,2013-02-24 13:46:00,
2013-02-24 07:51:00,18.7,15.7,30.12,WSW,246,1.0,2.0,88,0.00,,,0.00,Wunderground v.1.15,2013-02-24 13:51:00,
2013-02-24 07:56:00,19.1,16.4,30.12,WSW,247,1.0,2.0,89,0.00,,,0.00,Wunderground v.1.15,2013-02-24 13:56:00,
2013-02-24 08:02:00,19.8,17.1,30.12,WSW,245,1.0,1.0,89,0.00,,,0.00,Wunderground v.1.15,2013-02-24 14:02:00,
2013-02-24 08:07:00,20.4,17.7,30.12,WSW,246,0.0,1.0,89,0.00,,,0.00,Wunderground v.1.15,2013-02-24 14:07:00,
2013-02-24 08:12:00,20.9,17.9,30.13,WSW,242,1.0,2.0,88,0.00,,,0.00,Wunderground v.1.15,2013-02-24 14:12:00,
2013-02-24 08:18:00,21.2,18.2,30.13,WSW,239,2.0,3.0,88,0.00,,,0.00,Wunderground v.1.15,2013-02-24 14:18:00,
2013-02-24 08:23:00,21.7,18.7,30.13,WSW,239,2.0,2.0,88,0.00,,,0.00,Wunderground v.1.15,2013-02-24 14:23:00,
2013-02-24 08:28:00,22.4,19.4,30.13,WSW,240,2.0,2.0,88,0.00,,,0.00,Wunderground v.1.15,2013-02-24 14:28:00,
2013-02-24 08:33:00,23.1,20.1,30.13,WSW,246,1.0,1.0,88,0.00,,,0.00,Wunderground v.1.15,2013-02-24 14:33:00,
2013-02-24 08:38:00,23.8,20.2,30.14,WSW,251,0.0,2.0,86,0.00,,,0.00,Wunderground v.1.15,2013-02-24 14:38:00,
2013-02-24 08:44:00,24.1,20.2,30.14,WSW,249,1.0,2.0,85,0.00,,,0.00,Wunderground v.1.15,2013-02-24 14:44:00,
2013-02-24 08:49:00,24.2,20.3,30.14,WSW,240,2.0,4.0,85,0.00,,,0.00,Wunderground v.1.15,2013-02-24 14:49:00,
2013-02-24 08:54:00,24.3,20.4,30.14,WSW,242,3.0,3.0,85,0.00,,,0.00,Wunderground v.1.15,2013-02-24 14:54:00,
2013-02-24 08:59:00,24.7,20.6,30.14,WSW,240,3.0,4.0,84,0.00,,,0.00,Wunderground v.1.15,2013-02-24 14:59:00,
2013-02-24 09:04:00,24.8,20.7,30.14,WSW,238,3.0,3.0,84,0.00,,,0.00,Wunderground v.1.15,2013-02-24 15:04:00,
2013-02-24 09:09:00,25.1,20.9,30.14,WSW,245,2.0,3.0,84,0.00,,,0.00,Wunderground v.1.15,2013-02-24 15:09:00,
2013-02-24 09:14:00,25.4,21.0,30.14,WSW,246,2.0,3.0,83,0.00,,,0.00,Wunderground v.1.15,2013-02-24 15:14:00,
2013-02-24 09:19:00,25.7,21.3,30.14,WNW,282,2.0,3.0,83,0.00,,,0.00,Wunderground v.1.15,2013-02-24 15:19:00,
2013-02-24 09:25:00,26.1,21.4,30.14,WSW,252,1.0,3.0,82,0.00,,,0.00,Wunderground v.1.15,2013-02-24 15:25:00,
2013-02-24 09:30:00,26.3,21.3,30.14,WSW,258,1.0,1.0,81,0.00,,,0.00,Wunderground v.1.15,2013-02-24 15:30:00,
2013-02-24 09:35:00,26.6,21.6,30.14,WSW,253,1.0,1.0,81,0.00,,,0.00,Wunderground v.1.15,2013-02-24 15:35:00,
2013-02-24 09:40:00,26.9,21.8,30.14,WSW,247,1.0,1.0,81,0.00,,,0.00,Wunderground v.1.15,2013-02-24 15:40:00,
2013-02-24 09:45:00,27.1,21.7,30.14,WSW,237,1.0,2.0,80,0.00,,,0.00,Wunderground v.1.15,2013-02-24 15:45:00,
2013-02-24 09:50:00,27.5,22.4,30.14,SW,232,1.0,1.0,81,0.00,,,0.00,Wunderground v.1.15,2013-02-24 15:50:00,
2013-02-24 09:55:00,27.9,22.2,30.14,WSW,240,0.0,1.0,79,0.00,,,0.00,Wunderground v.1.15,2013-02-24 15:55:00,
2013-02-24 10:00:00,28.2,22.5,30.14,SW,236,0.0,3.0,79,0.00,,,0.00,Wunderground v.1.15,2013-02-24 16:00:00,
2013-02-24 10:06:00,28.3,22.3,30.14,SW,236,1.0,3.0,78,0.00,,,0.00,Wunderground v.1.15,2013-02-24 16:06:00,
2013-02-24 10:12:00,28.5,22.5,30.15,WSW,245,1.0,1.0,78,0.00,,,0.00,Wunderground v.1.15,2013-02-24 16:12:00,
2013-02-24 10:17:00,29.1,23.1,30.14,WSW,244,0.0,1.0,78,0.00,,,0.00,Wunderground v.1.15,2013-02-24 16:17:00,
2013-02-24 10:22:00,29.3,22.7,30.15,WSW,241,0.0,1.0,76,0.00,,,0.00,Wunderground v.1.15,2013-02-24 16:22:00,
2013-02-24 10:27:00,29.5,22.9,30.14,WSW,237,0.0,1.0,76,0.00,,,0.00,Wunderground v.1.15,2013-02-24 16:27:00,
2013-02-24 10:32:00,29.9,23.6,30.14,WSW,237,1.0,1.0,77,0.00,,,0.00,Wunderground v.1.15,2013-02-24 16:32:00,
2013-02-24 10:37:00,30.8,24.7,30.14,WSW,237,0.0,1.0,78,0.00,,,0.00,Wunderground v.1.15,2013-02-24 16:37:00,
2013-02-24 10:42:00,31.6,24.6,30.15,SSW,198,0.0,1.0,75,0.00,,,0.00,Wunderground v.1.15,2013-02-24 16:42:00,
2013-02-24 10:47:00,31.9,24.9,30.15,SSW,206,1.0,2.0,75,0.00,,,0.00,Wunderground v.1.15,2013-02-24 16:47:00,
2013-02-24 10:52:00,31.6,23.9,30.14,SSE,168,1.0,2.0,73,0.00,,,0.00,Wunderground v.1.15,2013-02-24 16:52:00,
2013-02-24 10:57:00,31.3,24.0,30.15,SSE,168,1.0,2.0,74,0.00,,,0.00,Wunderground v.1.15,2013-02-24 16:57:00,
2013-02-24 11:03:00,31.3,24.0,30.15,South,179,1.0,2.0,74,0.00,,,0.00,Wunderground v.1.15,2013-02-24 17:03:00,
2013-02-24 11:08:00,31.5,24.2,30.15,SSW,192,1.0,2.0,74,0.00,,,0.00,Wunderground v.1.15,2013-02-24 17:08:00,
2013-02-24 11:14:00,31.9,24.6,30.15,SSW,209,1.0,3.0,74,0.00,,,0.00,Wunderground v.1.15,2013-02-24 17:14:00,
2013-02-24 11:19:00,32.3,24.6,30.15,South,187,2.0,3.0,73,0.00,,,0.00,Wunderground v.1.15,2013-02-24 17:19:00,
2013-02-24 11:24:00,32.5,24.1,30.15,South,190,2.0,2.0,71,0.00,,,0.00,Wunderground v.1.15,2013-02-24 17:24:00,
2013-02-24 11:29:00,32.9,24.5,30.15,South,183,1.0,2.0,71,0.00,,,0.00,Wunderground v.1.15,2013-02-24 17:29:00,
2013-02-24 11:34:00,32.6,24.2,30.14,SSW,199,1.0,2.0,71,0.00,,,0.00,Wunderground v.1.15,2013-02-24 17:34:00,
2013-02-24 11:39:00,33.1,25.4,30.14,SW,218,2.0,3.0,73,0.00,,,0.00,Wunderground v.1.15,2013-02-24 17:39:00,
2013-02-24 11:44:00,33.3,25.2,30.14,SSW,209,2.0,3.0,72,0.00,,,0.00,Wunderground v.1.15,2013-02-24 17:44:00,
2013-02-24 11:49:00,33.7,26.6,30.14,SE,144,2.0,3.0,75,0.00,,,0.00,Wunderground v.1.15,2013-02-24 17:49:00,
2013-02-24 11:54:00,33.1,25.4,30.14,SSE,166,2.0,3.0,73,0.00,,,0.00,Wunderground v.1.15,2013-02-24 17:54:00,
2013-02-24 11:59:00,33.3,26.5,30.14,SSE,149,1.0,3.0,76,0.00,,,0.00,Wunderground v.1.15,2013-02-24 17:59:00,
2013-02-24 12:05:00,33.3,25.6,30.13,SE,132,2.0,2.0,73,0.00,,,0.00,Wunderground v.1.15,2013-02-24 18:05:00,
2013-02-24 12:10:00,32.9,24.5,30.13,SE,144,2.0,2.0,71,0.00,,,0.00,Wunderground v.1.15,2013-02-24 18:10:00,
2013-02-24 12:15:00,32.9,24.9,30.13,SSE,149,2.0,3.0,72,0.00,,,0.00,Wunderground v.1.15,2013-02-24 18:15:00,
2013-02-24 12:20:00,33.2,24.8,30.13,SSE,151,2.0,2.0,71,0.00,,,0.00,Wunderground v.1.15,2013-02-24 18:20:00,
2013-02-24 12:25:00,33.3,24.2,30.13,South,182,2.0,2.0,69,0.00,,,0.00,Wunderground v.1.15,2013-02-24 18:25:00,
2013-02-24 12:30:00,34.1,25.3,30.13,SW,222,2.0,2.0,70,0.00,,,0.00,Wunderground v.1.15,2013-02-24 18:30:00,
2013-02-24 12:35:00,34.7,25.2,30.13,SSW,201,1.0,2.0,68,0.00,,,0.00,Wunderground v.1.15,2013-02-24 18:35:00,
2013-02-24 12:40:00,35.0,25.5,30.12,SSE,163,1.0,2.0,68,0.00,,,0.00,Wunderground v.1.15,2013-02-24 18:40:00,
2013-02-24 12:45:00,34.3,24.8,30.12,ESE,113,2.0,3.0,68,0.00,,,0.00,Wunderground v.1.15,2013-02-24 18:45:00,
2013-02-24 12:50:00,34.0,24.9,30.12,SE,141,3.0,3.0,69,0.00,,,0.00,Wunderground v.1.15,2013-02-24 18:50:00,
2013-02-24 12:55:00,34.5,25.4,30.12,SW,222,3.0,3.0,69,0.00,,,0.00,Wunderground v.1.15,2013-02-24 18:55:00,
2013-02-24 13:00:00,35.2,26.4,30.13,SE,143,2.0,2.0,70,0.00,,,0.00,Wunderground v.1.15,2013-02-24 19:00:00,
2013-02-24 13:06:00,35.8,27.3,30.13,WSW,254,2.0,3.0,71,0.00,,,0.00,Wunderground v.1.15,2013-02-24 19:06:00,
2013-02-24 13:11:00,35.9,26.4,30.12,SW,235,2.0,4.0,68,0.00,,,0.00,Wunderground v.1.15,2013-02-24 19:11:00,
2013-02-24 13:16:00,35.5,26.3,30.13,SSW,211,3.0,4.0,69,0.00,,,0.00,Wunderground v.1.15,2013-02-24 19:16:00,
2013-02-24 13:21:00,35.6,26.4,30.13,SSE,160,3.0,3.0,69,0.00,,,0.00,Wunderground v.1.15,2013-02-24 19:21:00,
2013-02-24 13:26:00,35.5,25.6,30.13,SSE,154,2.0,3.0,67,0.00,,,0.00,Wunderground v.1.15,2013-02-24 19:26:00,
2013-02-24 13:31:00,35.4,26.2,30.12,SE,142,2.0,4.0,69,0.00,,,0.00,Wunderground v.1.15,2013-02-24 19:31:00,
2013-02-24 13:36:00,35.7,26.9,30.12,South,185,3.0,4.0,70,0.00,,,0.00,Wunderground v.1.15,2013-02-24 19:36:00,
2013-02-24 13:42:00,35.8,26.6,30.12,SSW,195,2.0,2.0,69,0.00,,,0.00,Wunderground v.1.15,2013-02-24 19:42:00,
2013-02-24 13:47:00,36.0,27.5,30.12,SW,232,2.0,3.0,71,0.00,,,0.00,Wunderground v.1.15,2013-02-24 19:47:00,
2013-02-24 13:52:00,36.1,27.6,30.12,WSW,244,3.0,6.0,71,0.00,,,0.00,Wunderground v.1.15,2013-02-24 19:52:00,
2013-02-24 13:58:00,36.4,27.9,30.12,SSW,202,3.0,6.0,71,0.00,,,0.00,Wunderground v.1.15,2013-02-24 19:58:00,
2013-02-24 14:04:00,36.7,28.2,30.12,SW,219,3.0,7.0,71,0.00,,,0.00,Wunderground v.1.15,2013-02-24 20:04:00,
2013-02-24 14:09:00,36.3,27.1,30.12,SW,232,3.0,7.0,69,0.00,,,0.00,Wunderground v.1.15,2013-02-24 20:09:00,
2013-02-24 14:15:00,37.0,28.1,30.12,SSW,206,3.0,4.0,70,0.00,,,0.00,Wunderground v.1.15,2013-02-24 20:15:00,
2013-02-24 14:21:00,36.9,27.7,30.12,West,265,3.0,5.0,69,0.00,,,0.00,Wunderground v.1.15,2013-02-24 20:21:00,
2013-02-24 14:26:00,36.8,27.9,30.12,SW,216,4.0,6.0,70,0.00,,,0.00,Wunderground v.1.15,2013-02-24 20:26:00,
2013-02-24 14:32:00,36.5,26.9,30.12,WSW,239,4.0,6.0,68,0.00,,,0.00,Wunderground v.1.15,2013-02-24 20:32:00,
2013-02-24 14:37:00,36.2,26.6,30.12,WSW,241,4.0,6.0,68,0.00,,,0.00,Wunderground v.1.15,2013-02-24 20:37:00,
2013-02-24 14:42:00,36.3,27.1,30.12,SW,232,4.0,6.0,69,0.00,,,0.00,Wunderground v.1.15,2013-02-24 20:42:00,
2013-02-24 14:47:00,36.5,26.9,30.12,SSW,209,4.0,6.0,68,0.00,,,0.00,Wunderground v.1.15,2013-02-24 20:47:00,
2013-02-24 14:52:00,36.9,27.7,30.11,SW,227,3.0,5.0,69,0.00,,,0.00,Wunderground v.1.15,2013-02-24 20:52:00,
2013-02-24 14:57:00,37.1,28.6,30.11,WSW,247,3.0,5.0,71,0.00,,,0.00,Wunderground v.1.15,2013-02-24 20:57:00,
2013-02-24 15:03:00,37.3,28.4,30.11,SW,216,4.0,5.0,70,0.00,,,0.00,Wunderground v.1.15,2013-02-24 21:03:00,
2013-02-24 15:08:00,37.6,28.7,30.11,SW,219,3.0,5.0,70,0.00,,,0.00,Wunderground v.1.15,2013-02-24 21:08:00,
2013-02-24 15:13:00,37.7,28.4,30.11,SSW,207,2.0,3.0,69,0.00,,,0.00,Wunderground v.1.15,2013-02-24 21:13:00,
2013-02-24 15:18:00,37.9,28.6,30.11,WSW,241,2.0,3.0,69,0.00,,,0.00,Wunderground v.1.15,2013-02-24 21:18:00,
2013-02-24 15:23:00,37.9,27.9,30.12,SE,137,2.0,6.0,67,0.00,,,0.00,Wunderground v.1.15,2013-02-24 21:23:00,
2013-02-24 15:29:00,37.5,28.2,30.11,SW,219,2.0,6.0,69,0.00,,,0.00,Wunderground v.1.15,2013-02-24 21:29:00,
2013-02-24 15:35:00,38.2,29.3,30.11,SSW,211,1.0,3.0,70,0.00,,,0.00,Wunderground v.1.15,2013-02-24 21:35:00,
2013-02-24 15:40:00,37.7,28.1,30.11,SSE,152,2.0,2.0,68,0.00,,,0.00,Wunderground v.1.15,2013-02-24 21:40:00,
2013-02-24 15:45:00,37.6,28.7,30.11,SE,130,2.0,2.0,70,0.00,,,0.00,Wunderground v.1.15,2013-02-24 21:45:00,
2013-02-24 15:51:00,37.4,27.8,30.11,SSE,154,2.0,3.0,68,0.00,,,0.00,Wunderground v.1.15,2013-02-24 21:51:00,
2013-02-24 15:56:00,37.8,29.2,30.11,SSW,207,3.0,4.0,71,0.00,,,0.00,Wunderground v.1.15,2013-02-24 21:56:00,
2013-02-24 16:02:00,38.1,29.5,30.11,SW,220,2.0,3.0,71,0.00,,,0.00,Wunderground v.1.15,2013-02-24 22:02:00,
2013-02-24 16:07:00,38.4,29.5,30.11,SW,216,2.0,3.0,70,0.00,,,0.00,Wunderground v.1.15,2013-02-24 22:07:00,
2013-02-24 16:12:00,38.4,29.5,30.11,WSW,243,2.0,2.0,70,0.00,,,0.00,Wunderground v.1.15,2013-02-24 22:12:00,
2013-02-24 16:17:00,38.6,29.3,30.11,South,171,2.0,3.0,69,0.00,,,0.00,Wunderground v.1.15,2013-02-24 22:17:00,
2013-02-24 16:23:00,38.6,29.7,30.11,SW,218,2.0,4.0,70,0.00,,,0.00,Wunderground v.1.15,2013-02-24 22:23:00,
2013-02-24 16:28:00,38.4,28.8,30.11,SSE,157,2.0,4.0,68,0.00,,,0.00,Wunderground v.1.15,2013-02-24 22:28:00,
2013-02-24 16:34:00,37.8,28.5,30.10,SSW,204,2.0,3.0,69,0.00,,,0.00,Wunderground v.1.15,2013-02-24 22:34:00,
2013-02-24 16:39:00,37.7,28.4,30.10,SSW,205,2.0,3.0,69,0.00,,,0.00,Wunderground v.1.15,2013-02-24 22:39:00,
2013-02-24 16:45:00,37.9,29.7,30.11,SSW,209,2.0,4.0,72,0.00,,,0.00,Wunderground v.1.15,2013-02-24 22:45:00,
2013-02-24 16:50:00,37.9,29.3,30.11,SSW,213,2.0,2.0,71,0.00,,,0.00,Wunderground v.1.15,2013-02-24 22:50:00,
2013-02-24 16:55:00,37.9,28.6,30.10,SSW,192,3.0,3.0,69,0.00,,,0.00,Wunderground v.1.15,2013-02-24 22:55:00,
2013-02-24 17:00:00,37.6,29.0,30.11,SSW,212,2.0,2.0,71,0.00,,,0.00,Wunderground v.1.15,2013-02-24 23:00:00,
2013-02-24 17:06:00,37.7,28.8,30.11,SSW,212,2.0,3.0,70,0.00,,,0.00,Wunderground v.1.15,2013-02-24 23:06:00,
2013-02-24 17:11:00,37.8,29.2,30.11,SW,216,2.0,2.0,71,0.00,,,0.00,Wunderground v.1.15,2013-02-24 23:11:00,
2013-02-24 17:16:00,37.7,29.1,30.11,SW,215,1.0,2.0,71,0.00,,,0.00,Wunderground v.1.15,2013-02-24 23:16:00,
2013-02-24 17:21:00,37.3,28.8,30.11,SW,220,2.0,3.0,71,0.00,,,0.00,Wunderground v.1.15,2013-02-24 23:21:00,
2013-02-24 17:26:00,36.4,29.2,30.11,SSW,211,3.0,3.0,75,0.00,,,0.00,Wunderground v.1.15,2013-02-24 23:26:00,
2013-02-24 17:32:00,35.8,29.0,30.11,SSW,209,3.0,3.0,76,0.00,,,0.00,Wunderground v.1.15,2013-02-24 23:32:00,
2013-02-24 17:37:00,35.4,28.6,30.11,SW,218,3.0,4.0,76,0.00,,,0.00,Wunderground v.1.15,2013-02-24 23:37:00,
2013-02-24 17:42:00,35.1,28.3,30.11,SSW,209,3.0,3.0,76,0.00,,,0.00,Wunderground v.1.15,2013-02-24 23:42:00,
2013-02-24 17:47:00,34.9,28.1,30.11,SSW,209,2.0,3.0,76,0.00,,,0.00,Wunderground v.1.15,2013-02-24 23:47:00,
2013-02-24 17:52:00,34.8,28.3,30.11,SSW,213,2.0,4.0,77,0.00,,,0.00,Wunderground v.1.15,2013-02-24 23:52:00,
2013-02-24 17:57:00,34.5,28.3,30.12,SSW,209,3.0,4.0,78,0.00,,,0.00,Wunderground v.1.15,2013-02-24 23:57:00,
2013-02-24 18:03:00,33.8,28.3,30.12,SSW,211,3.0,4.0,80,0.00,,,0.00,Wunderground v.1.15,2013-02-25 00:03:00,
2013-02-24 18:08:00,33.8,28.0,30.12,SSW,206,2.0,4.0,79,0.00,,,0.00,Wunderground v.1.15,2013-02-25 00:08:00,
2013-02-24 18:13:00,33.8,28.3,30.12,SSW,205,1.0,2.0,80,0.00,,,0.00,Wunderground v.1.15,2013-02-25 00:13:00,
2013-02-24 18:18:00,33.4,28.5,30.12,SSW,205,1.0,2.0,82,0.00,,,0.00,Wunderground v.1.15,2013-02-25 00:18:00,
2013-02-24 18:23:00,33.3,28.4,30.12,South,171,2.0,3.0,82,0.00,,,0.00,Wunderground v.1.15,2013-02-25 00:23:00,
2013-02-24 18:28:00,33.1,28.5,30.12,SSE,164,2.0,3.0,83,0.00,,,0.00,Wunderground v.1.15,2013-02-25 00:28:00,
2013-02-24 18:33:00,32.8,28.5,30.12,SSE,160,2.0,2.0,84,0.00,,,0.00,Wunderground v.1.15,2013-02-25 00:33:00,
2013-02-24 18:38:00,32.5,28.5,30.12,SSE,157,2.0,2.0,85,0.00,,,0.00,Wunderground v.1.15,2013-02-25 00:38:00,
2013-02-24 18:43:00,32.5,28.5,30.12,SSE,160,2.0,2.0,85,0.00,,,0.00,Wunderground v.1.15,2013-02-25 00:43:00,
2013-02-24 18:48:00,32.6,28.6,30.12,South,179,2.0,2.0,85,0.00,,,0.00,Wunderground v.1.15,2013-02-25 00:48:00,
2013-02-24 18:54:00,32.5,28.5,30.12,SSE,158,2.0,2.0,85,0.00,,,0.00,Wunderground v.1.15,2013-02-25 00:54:00,
2013-02-24 19:00:00,32.5,28.5,30.12,SSE,154,2.0,2.0,85,0.00,,,0.00,Wunderground v.1.15,2013-02-25 01:00:00,
2013-02-24 19:06:00,32.5,28.5,30.12,SSW,199,2.0,3.0,85,0.00,,,0.00,Wunderground v.1.15,2013-02-25 01:06:00,
2013-02-24 19:11:00,32.4,28.1,30.12,South,190,2.0,2.0,84,0.00,,,0.00,Wunderground v.1.15,2013-02-25 01:11:00,
2013-02-24 19:16:00,32.3,28.0,30.12,South,186,2.0,2.0,84,0.00,,,0.00,Wunderground v.1.15,2013-02-25 01:16:00,
2013-02-24 19:22:00,32.2,28.2,30.12,SSE,155,2.0,2.0,85,0.00,,,0.00,Wunderground v.1.15,2013-02-25 01:22:00,
2013-02-24 19:27:00,32.2,28.2,30.13,SSE,154,2.0,2.0,85,0.00,,,0.00,Wunderground v.1.15,2013-02-25 01:27:00,
2013-02-24 19:33:00,32.0,28.3,30.13,South,191,2.0,2.0,86,0.00,,,0.00,Wunderground v.1.15,2013-02-25 01:33:00,
2013-02-24 19:39:00,31.9,28.2,30.13,SSW,192,2.0,2.0,86,0.00,,,0.00,Wunderground v.1.15,2013-02-25 01:39:00,
2013-02-24 19:44:00,31.8,28.1,30.13,SSW,192,1.0,2.0,86,0.00,,,0.00,Wunderground v.1.15,2013-02-25 01:44:00,
2013-02-24 19:50:00,31.8,28.1,30.13,SSE,151,1.0,2.0,86,0.00,,,0.00,Wunderground v.1.15,2013-02-25 01:50:00,
2013-02-24 19:55:00,31.6,28.2,30.13,SE,144,2.0,3.0,87,0.00,,,0.00,Wunderground v.1.15,2013-02-25 01:55:00,
2013-02-24 20:00:00,31.5,28.1,30.13,SSE,147,2.0,2.0,87,0.00,,,0.00,Wunderground v.1.15,2013-02-25 02:00:00,
2013-02-24 20:06:00,31.5,28.1,30.13,SSE,152,2.0,3.0,87,0.00,,,0.00,Wunderground v.1.15,2013-02-25 02:06:00,
2013-02-24 20:11:00,31.3,27.9,30.13,SSE,166,2.0,3.0,87,0.00,,,0.00,Wunderground v.1.15,2013-02-25 02:11:00,
2013-02-24 20:17:00,31.1,27.7,30.13,SSE,159,2.0,3.0,87,0.00,,,0.00,Wunderground v.1.15,2013-02-25 02:17:00,
2013-02-24 20:22:00,31.0,27.9,30.13,SSE,161,2.0,2.0,88,0.00,,,0.00,Wunderground v.1.15,2013-02-25 02:22:00,
2013-02-24 20:28:00,30.9,27.8,30.13,South,185,2.0,2.0,88,0.00,,,0.00,Wunderground v.1.15,2013-02-25 02:28:00,
2013-02-24 20:33:00,30.8,27.7,30.12,South,171,2.0,2.0,88,0.00,,,0.00,Wunderground v.1.15,2013-02-25 02:33:00,
2013-02-24 20:38:00,30.8,27.7,30.13,SSE,156,2.0,3.0,88,0.00,,,0.00,Wunderground v.1.15,2013-02-25 02:38:00,
2013-02-24 20:43:00,30.8,27.7,30.12,SE,142,2.0,3.0,88,0.00,,,0.00,Wunderground v.1.15,2013-02-25 02:43:00,
2013-02-24 20:48:00,30.6,27.5,30.13,SSE,165,3.0,3.0,88,0.00,,,0.00,Wunderground v.1.15,2013-02-25 02:48:00,
2013-02-24 20:53:00,30.4,27.3,30.13,South,172,3.0,3.0,88,0.00,,,0.00,Wunderground v.1.15,2013-02-25 02:53:00,
2013-02-24 20:58:00,30.3,27.4,30.13,SSW,192,2.0,3.0,89,0.00,,,0.00,Wunderground v.1.15,2013-02-25 02:58:00,
2013-02-24 21:04:00,30.3,27.4,30.13,SSE,158,2.0,2.0,89,0.00,,,0.00,Wunderground v.1.15,2013-02-25 03:04:00,
2013-02-24 21:09:00,30.2,27.3,30.13,SSE,158,2.0,2.0,89,0.00,,,0.00,Wunderground v.1.15,2013-02-25 03:09:00,
2013-02-24 21:14:00,30.2,27.3,30.13,South,175,1.0,2.0,89,0.00,,,0.00,Wunderground v.1.15,2013-02-25 03:14:00,
2013-02-24 21:19:00,30.1,27.3,30.13,South,184,1.0,2.0,89,0.00,,,0.00,Wunderground v.1.15,2013-02-25 03:19:00,
2013-02-24 21:24:00,30.0,27.2,30.13,South,184,1.0,1.0,89,0.00,,,0.00,Wunderground v.1.15,2013-02-25 03:24:00,
2013-02-24 21:29:00,29.9,27.3,30.14,SSW,192,1.0,2.0,90,0.00,,,0.00,Wunderground v.1.15,2013-02-25 03:29:00,
2013-02-24 21:35:00,29.7,27.1,30.14,South,172,2.0,3.0,90,0.00,,,0.00,Wunderground v.1.15,2013-02-25 03:35:00,
2013-02-24 21:40:00,29.7,27.1,30.14,SSW,211,2.0,2.0,90,0.00,,,0.00,Wunderground v.1.15,2013-02-25 03:40:00,
2013-02-24 21:45:00,29.6,27.0,30.14,SSW,204,2.0,2.0,90,0.00,,,0.00,Wunderground v.1.15,2013-02-25 03:45:00,
2013-02-24 21:50:00,29.6,27.0,30.14,SSW,201,2.0,2.0,90,0.00,,,0.00,Wunderground v.1.15,2013-02-25 03:50:00,
2013-02-24 21:55:00,29.6,27.0,30.14,SSW,204,2.0,2.0,90,0.00,,,0.00,Wunderground v.1.15,2013-02-25 03:55:00,
2013-02-24 22:00:00,29.6,27.0,30.14,SSW,202,2.0,2.0,90,0.00,,,0.00,Wunderground v.1.15,2013-02-25 04:00:00,
2013-02-24 22:06:00,29.5,26.9,30.14,SSW,195,2.0,3.0,90,0.00,,,0.00,Wunderground v.1.15,2013-02-25 04:06:00,
2013-02-24 22:11:00,29.4,27.1,30.14,South,171,2.0,3.0,91,0.00,,,0.00,Wunderground v.1.15,2013-02-25 04:11:00,
2013-02-24 22:16:00,29.4,26.8,30.14,SSW,198,2.0,3.0,90,0.00,,,0.00,Wunderground v.1.15,2013-02-25 04:16:00,
2013-02-24 22:21:00,29.3,26.7,30.14,South,183,2.0,2.0,90,0.00,,,0.00,Wunderground v.1.15,2013-02-25 04:21:00,
2013-02-24 22:27:00,29.3,27.0,30.14,SSE,166,2.0,2.0,91,0.00,,,0.00,Wunderground v.1.15,2013-02-25 04:27:00,
2013-02-24 22:32:00,29.2,26.9,30.14,SSE,159,1.0,2.0,91,0.00,,,0.00,Wunderground v.1.15,2013-02-25 04:32:00,
2013-02-24 22:37:00,29.2,26.9,30.14,SSW,198,1.0,2.0,91,0.00,,,0.00,Wunderground v.1.15,2013-02-25 04:37:00,
2013-02-24 22:42:00,29.1,26.8,30.14,South,182,2.0,2.0,91,0.00,,,0.00,Wunderground v.1.15,2013-02-25 04:42:00,
2013-02-24 22:48:00,29.1,26.8,30.14,SSW,194,2.0,2.0,91,0.00,,,0.00,Wunderground v.1.15,2013-02-25 04:48:00,
2013-02-24 22:54:00,29.2,26.9,30.14,SSW,194,2.0,2.0,91,0.00,,,0.00,Wunderground v.1.15,2013-02-25 04:54:00,
2013-02-24 22:59:00,29.0,26.7,30.13,SSW,194,1.0,2.0,91,0.00,,,0.00,Wunderground v.1.15,2013-02-25 04:59:00,
2013-02-24 23:00:00,29.0,26.7,30.13,SSW,194,1.0,1.0,91,0.00,,,0.00,Wunderground v.1.15,2013-02-25 05:00:00,
2013-02-24 23:01:00,28.9,26.6,30.14,SSW,194,1.0,1.0,91,0.00,,,0.00,Wunderground v.1.15,2013-02-25 05:01:00,
2013-02-24 23:02:00,28.9,26.6,30.13,SSW,194,1.0,1.0,91,0.00,,,0.00,Wunderground v.1.15,2013-02-25 05:02:00,
2013-02-24 23:03:00,28.9,26.6,30.13,SSW,194,1.0,1.0,91,0.00,,,0.00,Wunderground v.1.15,2013-02-25 05:03:00,
2013-02-24 23:09:00,28.8,26.5,30.13,SSW,194,1.0,1.0,91,0.00,,,0.00,Wunderground v.1.15,2013-02-25 05:09:00,
2013-02-24 23:14:00,28.7,26.4,30.13,SSW,194,1.0,1.0,91,0.00,,,0.00,Wunderground v.1.15,2013-02-25 05:14:00,
2013-02-24 23:19:00,28.8,26.5,30.13,SSW,194,1.0,2.0,91,0.00,,,0.00,Wunderground v.1.15,2013-02-25 05:19:00,
2013-02-24 23:24:00,28.8,26.5,30.12,SSW,194,2.0,2.0,91,0.00,,,0.00,Wunderground v.1.15,2013-02-25 05:24:00,
2013-02-24 23:30:00,28.8,26.2,30.13,SSE,156,1.0,1.0,90,0.00,,,0.00,Wunderground v.1.15,2013-02-25 05:30:00,
2013-02-24 23:35:00,28.8,26.2,30.13,SSE,161,1.0,1.0,90,0.00,,,0.00,Wunderground v.1.15,2013-02-25 05:35:00,
2013-02-24 23:40:00,28.9,26.3,30.13,South,175,1.0,1.0,90,0.00,,,0.00,Wunderground v.1.15,2013-02-25 05:40:00,
2013-02-24 23:46:00,28.7,26.1,30.13,South,175,0.0,1.0,90,0.00,,,0.00,Wunderground v.1.15,2013-02-25 05:46:00,
2013-02-24 23:52:00,28.6,26.0,30.13,South,175,0.0,0.0,90,0.00,,,0.00,Wunderground v.1.15,2013-02-25 05:52:00,
2013-02-24 23:57:00,28.7,26.1,30.13,South,175,0.0,0.0,90,0.00,,,0.00,Wunderground v.1.15,2013-02-25 05:57:00,